This is the latest recevied weather packets stored in our database for station/object KQ4HEI. If no packets are shown the sender has not sent any weather packets the latest 10 day(s).
| Time | Temp. | Humidity | Pressure | Rain* | Wind** | Luminosity | Snow |
|---|---|---|---|---|---|---|---|
| 1777781492 | 11.67° C | 84% | 1015.7 hPa | 0 mm | - | - | - |
| 1777780892 | 12.22° C | 84% | 1015.7 hPa | 0 mm | - | - | - |
| 1777780293 | 12.78° C | 82% | 1015.6 hPa | 0 mm | - | - | - |
| 1777779692 | 12.78° C | 82% | 1015.4 hPa | 0 mm | - | - | - |
| 1777779092 | 13.33° C | 80% | 1015.4 hPa | 0 mm | - | - | - |
| 1777778492 | 13.89° C | 78% | 1015.2 hPa | 0 mm | - | - | - |
| 1777777892 | 14.44° C | 77% | 1015.1 hPa | 0 mm | - | - | - |
| 1777777292 | 14.44° C | 77% | 1015.1 hPa | 0 mm | - | - | - |
| 1777776692 | 14.44° C | 78% | 1015 hPa | 0 mm | - | - | - |
| 1777776092 | 14.44° C | 82% | 1014.9 hPa | 0 mm | - | - | - |
| 1777775492 | 15° C | 80% | 1014.6 hPa | 0 mm | - | - | - |
| 1777774892 | 14.44° C | 84% | 1014.2 hPa | 0 mm | - | - | - |
| 1777774292 | 13.89° C | 87% | 1014.1 hPa | 0 mm | - | - | - |
| 1777773692 | 13.89° C | 90% | 1014 hPa | 0 mm | - | - | - |
| 1777773092 | 13.89° C | 90% | 1013.9 hPa | 0 mm | - | - | - |
| 1777772492 | 13.89° C | 88% | 1013.7 hPa | 0 mm | - | - | - |
| 1777771892 | 14.44° C | 87% | 1013.5 hPa | 0 mm | - | - | - |
| 1777771292 | 15° C | 85% | 1013.4 hPa | 0 mm | - | - | - |
| 1777770692 | 15.56° C | 83% | 1013.2 hPa | 0 mm | - | - | - |
| 1777770092 | 16.11° C | 82% | 1013.1 hPa | 0 mm | - | - | - |
| 1777769492 | 16.67° C | 79% | 1012.9 hPa | 0 mm | - | - | - |
| 1777768929 | 17.78° C | 75% | 1012.5 hPa | 0 mm | - | - | - |
| 1777768892 | 17.78° C | 75% | 1012.5 hPa | 0 mm | - | - | - |
| 1777768292 | 18.33° C | 72% | 1012.1 hPa | 0 mm | - | - | - |
| 1777767692 | 18.89° C | 69% | 1011.9 hPa | 0 mm | - | - | - |
* Rain latest hour (hover to see other rain measurements)
** Current wind speed in m/s (hover to see current wind gust speed)